TimeEST,TemperatureF,Dew PointF,Humidity,Sea Level PressureIn,VisibilityMPH,Wind Direction,Wind SpeedMPH,Gust SpeedMPH,PrecipitationIn,Events,Conditions,WindDirDegrees,DateUTC
12:53 AM,37.0,30.9,79,30.42,10.0,East,10.4,-,N/A,,Clear,100,2013-11-04 05:53:00
1:53 AM,35.1,30.0,82,30.43,10.0,ESE,6.9,-,N/A,,Clear,110,2013-11-04 06:53:00
2:53 AM,34.0,30.0,85,30.44,10.0,ESE,5.8,-,N/A,,Clear,110,2013-11-04 07:53:00
3:53 AM,34.0,30.0,85,30.43,10.0,East,8.1,-,N/A,,Clear,100,2013-11-04 08:53:00
4:53 AM,33.1,30.0,89,30.45,10.0,East,5.8,-,N/A,,Clear,100,2013-11-04 09:53:00
5:53 AM,35.1,30.0,82,30.45,10.0,ESE,6.9,-,N/A,,Clear,110,2013-11-04 10:53:00
6:53 AM,36.0,30.9,82,30.44,10.0,ESE,5.8,-,N/A,,Clear,110,2013-11-04 11:53:00
7:53 AM,37.0,30.9,79,30.43,10.0,ESE,6.9,-,N/A,,Clear,110,2013-11-04 12:53:00
8:53 AM,39.0,30.9,73,30.44,10.0,ESE,9.2,-,N/A,,Clear,110,2013-11-04 13:53:00
9:53 AM,42.1,30.0,62,30.43,10.0,SE,8.1,-,N/A,,Clear,130,2013-11-04 14:53:00
10:53 AM,46.0,28.0,50,30.43,10.0,SSE,10.4,-,N/A,,Clear,150,2013-11-04 15:53:00
11:53 AM,48.9,25.0,39,30.39,10.0,SE,6.9,18.4,N/A,,Clear,140,2013-11-04 16:53:00
12:53 PM,50.0,28.0,43,30.38,10.0,SSE,11.5,17.3,N/A,,Clear,150,2013-11-04 17:53:00
1:53 PM,51.1,27.0,39,30.34,10.0,SE,9.2,-,N/A,,Clear,140,2013-11-04 18:53:00
2:53 PM,50.0,28.9,44,30.32,10.0,SE,10.4,-,N/A,,Clear,130,2013-11-04 19:53:00
3:53 PM,50.0,30.9,48,30.34,10.0,SE,9.2,-,N/A,,Clear,130,2013-11-04 20:53:00
4:53 PM,50.0,32.0,50,30.32,10.0,ESE,9.2,-,N/A,,Clear,120,2013-11-04 21:53:00
5:53 PM,48.9,34.0,56,30.32,10.0,ESE,5.8,-,N/A,,Clear,120,2013-11-04 22:53:00
6:53 PM,48.0,36.0,63,30.32,10.0,ESE,4.6,-,N/A,,Clear,120,2013-11-04 23:53:00
7:53 PM,48.0,37.0,66,30.32,10.0,SSE,4.6,-,N/A,,Clear,160,2013-11-05 00:53:00
8:53 PM,48.9,37.0,64,30.32,10.0,South,6.9,-,N/A,,Clear,170,2013-11-05 01:53:00
9:53 PM,50.0,37.9,63,30.32,10.0,South,6.9,-,N/A,,Clear,190,2013-11-05 02:53:00
10:53 PM,50.0,37.9,63,30.32,10.0,South,11.5,-,N/A,,Clear,190,2013-11-05 03:53:00
11:53 PM,48.9,39.0,69,30.32,10.0,South,6.9,-,N/A,,Clear,190,2013-11-05 04:53:00